Regional Weather Roundup
Issued by NWS Charleston, WV

Home | Current Version | Previous Version | Text Only | Print | Product List | Glossary Off
Versions: 1 2 3 4 5 6 7 8 9 10 11 12 13 14 15 16 17 18 19 20 21 22 23 24 25 26 27 28 29 30 31 32 33 34 35 36 37 38 39 40 41 42 43 44 45 46 47 48 49 50

000
ASUS41 KRLX 271410
RWRRLX
West Virginia Regional Weather Roundup
National Weather Service Charleston WV
900 AM EST THU NOV 27 2014

Note: "fair" indicates few or no clouds below 12,000 feet with no
significant weather and/or obstructions to visibility.

WVZ003-271500-
Northern Panhandle of West Virginia

CITY           SKY/WX    TMP DP  RH WIND       PRES   REMARKS
WHEELING       MOSUNNY   31  27  85 W7        30.06R
$$

WVZ009-271500-
Northwest West Virginia

CITY           SKY/WX    TMP DP  RH WIND       PRES   REMARKS
PARKERSBURG    CLOUDY    33  25  72 VRB7      30.13R
$$

WVZ006-271500-
Western West Virginia

CITY           SKY/WX    TMP DP  RH WIND       PRES   REMARKS
HUNTINGTON     PTSUNNY   32  25  75 W7        30.16R
$$

WVZ015-271500-
West Central West Virginia

CITY           SKY/WX    TMP DP  RH WIND       PRES   REMARKS
CHARLESTON     MOSUNNY   34  30  85 W8        30.12R
$$

WVZ022-031-271500-
North Central West Virginia

CITY           SKY/WX    TMP DP  RH WIND       PRES   REMARKS
CLARKSBURG     LGT SNOW  34  32  92 W3        30.06R FOG
MORGANTOWN     CLOUDY    33  29  85 CALM      30.05R FOG
$$

WVZ025-035-042-045-271500-
Southern West Virginia

CITY           SKY/WX    TMP DP  RH WIND       PRES   REMARKS
BECKLEY        LGT SNOW  32  29  88 N7        30.02R FOG
LOGAN          CLOUDY    32  30  93 VRB5      30.10R
BLUEFIELD      LGT SNOW  33  28  81 NW3       30.01R
LEWISBURG      CLOUDY    33  32  96 CALM      30.00R FOG
$$

WVZ047-271500-
Northern Mountains of West Virginia

CITY           SKY/WX    TMP DP  RH WIND       PRES   REMARKS
ELKINS         CLOUDY    33  31  92 N3        30.02R
$$

WVZ052-271500-
Eastern Panhandle of West Virginia

CITY           SKY/WX    TMP DP  RH WIND       PRES   REMARKS
MARTINSBURG    CLOUDY    35  32  88 CALM      30.05R FOG
PETERSBURG     FOG       31  31  97 CALM      30.05S VSB 1/4
$$


USA.gov is the U.S. government's official web portal to all federal, state and local government web resources and services.